Tupelo, MS

10:38 PM CDT on May 21, 2018 (GMT -0500)
Tupelo Regional

Weather History for KTUP - October, 2012

Change the Weather History Date:

Sunday, October 21, 2012

  Actual Average Record
Temperature  
Mean Temperature 63 °F 61 °F  
Max Temperature 80 °F 74 °F 90 °F (1963)
Min Temperature 45 °F 49 °F 27 °F (1976)
Degree Days  
Heating Degree Days 2 5  
Month to date heating degree days 72 69  
Since 1 July heating degree days 83 81  
Cooling Degree Days 0 2  
Month to date cooling degree days 34 63  
Year to date cooling degree days 2194 2021  
Growing Degree Days 12 (Base 50)    
Moisture  
Dew Point 50 °F    
Average Humidity 68    
Maximum Humidity 100    
Minimum Humidity 36    
Precipitation  
Precipitation 0.00 in 0.14 in 0.88 in (1950)
Month to date precipitation 3.03 2.82  
Year to date precipitation 41.49 42.73  
Snow  
Snow 0.00 in 0.00 in 0.00 in (2002)
Month to date snowfall 0.0 0.0  
Since 1 July snowfall 0.0 0.0  
Since 1 September snowfall 0.0 0.0  
Snow Depth 0.00 in    
Sea Level Pressure  
Sea Level Pressure 30.06 in    
Wind  
Wind Speed 5 mph (SSW)    
Max Wind Speed 13 mph    
Max Gust Speed 15 mph    
Visibility 10 miles    
Events      
T = Trace of Precipitation, MM = Missing Value Source: NWS Daily Summary

Daily Weather History Graph

Daily Weather History Graph

Search for Another Location

Airport or City:

Astronomy

Oct. 21, 2012 Rise Set
Actual Time 7:05 AM CDT 6:12 PM CDT
Civil Twilight 6:40 AM CDT 6:38 PM CDT
Nautical Twilight 6:10 AM CDT 7:07 PM CDT
Astronomical Twilight 5:41 AM CDT 7:36 PM CDT
Moon 1:21 PM CDT (10/21) No Moon Set
Length of Visible Light 11h 58m
Length of Day
11h 07m
Waxing Crescent, 45% of the Moon is Illuminated
Oct 21
Waxing Crescent
Oct 21
First Quarter
Oct 29
Full
Nov 6
Last Quarter
Nov 13
New

Hourly Weather History & Observations

Time (CDT) Temp. Dew Point Humidity Pressure Visibility Wind Dir Wind Speed Gust Speed Precip Events Conditions
12:53 AM 50.0 °F 48.0 °F 93% 29.99 in 10.0 mi Calm Calm - N/A   Clear
1:53 AM 50.0 °F 46.9 °F 89% 30.00 in 10.0 mi Calm Calm - N/A   Clear
2:53 AM 48.0 °F 46.9 °F 96% 30.01 in 10.0 mi Calm Calm - N/A   Clear
3:53 AM 48.0 °F 46.0 °F 93% 30.01 in 10.0 mi Calm Calm - N/A   Clear
4:53 AM 46.9 °F 46.0 °F 97% 30.03 in 10.0 mi Calm Calm - N/A   Clear
5:53 AM 48.0 °F 46.0 °F 93% 30.06 in 10.0 mi Calm Calm - N/A   Clear
6:53 AM 46.9 °F 45.0 °F 93% 30.07 in 10.0 mi Calm Calm - N/A   Clear
7:53 AM 51.1 °F 46.9 °F 86% 30.09 in 10.0 mi Calm Calm - N/A   Clear
8:53 AM 57.0 °F 50.0 °F 77% 30.10 in 10.0 mi SSW 8.1 mph - N/A   Clear
9:53 AM 62.1 °F 50.0 °F 65% 30.12 in 10.0 mi South 8.1 mph - N/A   Mostly Cloudy
10:53 AM 68.0 °F 51.1 °F 55% 30.11 in 10.0 mi SSW 8.1 mph - N/A   Clear
11:53 AM 73.0 °F 52.0 °F 48% 30.10 in 10.0 mi South 8.1 mph - N/A   Partly Cloudy
12:53 PM 78.1 °F 51.1 °F 39% 30.08 in 10.0 mi SW 8.1 mph - N/A   Clear
1:53 PM 78.1 °F 51.1 °F 39% 30.06 in 10.0 mi SSW 8.1 mph - N/A   Clear
2:53 PM 80.1 °F 52.0 °F 38% 30.05 in 10.0 mi SSW 6.9 mph - N/A   Clear
3:53 PM 78.1 °F 51.1 °F 39% 30.05 in 10.0 mi SSW 10.4 mph - N/A   Clear
4:53 PM 78.1 °F 51.1 °F 39% 30.04 in 10.0 mi South 9.2 mph - N/A   Clear
5:53 PM 75.0 °F 52.0 °F 44% 30.06 in 10.0 mi South 5.8 mph - N/A   Clear
6:53 PM 70.0 °F 53.1 °F 55% 30.06 in 10.0 mi South 6.9 mph - N/A   Clear
7:53 PM 66.9 °F 53.1 °F 61% 30.07 in 10.0 mi South 6.9 mph - N/A   Clear
8:53 PM 64.9 °F 54.0 °F 68% 30.07 in 10.0 mi South 5.8 mph - N/A   Clear
9:53 PM 62.1 °F 54.0 °F 75% 30.08 in 10.0 mi SSW 4.6 mph - N/A   Clear
10:53 PM 60.1 °F 54.0 °F 80% 30.09 in 10.0 mi SSW 3.5 mph - N/A   Clear
11:53 PM 59.0 °F 53.1 °F 81% 30.08 in 10.0 mi SSW 4.6 mph - N/A   Clear